GFSMW_850_thetae_030.txt.gz
Theta_e
344 346 347 348 348 349 350 350 352 351 354 353 353 349 351 349 347 344 352 351 348 348 347 346 345 349 347 347 344 344 333 334 336 335 336 338 336 335 339 338 337 337 340
344 345 347 348 348 349 350 351 352 352 351 353 350 350 349 350 351 351 349 349 350 348 347 342 350 348 347 346 345 341 329 334 339 330 335 337 338 338 338 336 334 334 334
342 346 347 348 348 349 351 351 352 353 352 351 351 353 355 351 355 355 352 351 349 346 350 347 345 349 345 346 344 339 334 334 335 336 337 340 340 338 338 337 336 330 334
343 343 347 349 349 349 351 352 352 352 352 349 355 351 350 353 349 346 346 347 350 348 347 343 348 347 340 344 338 335 328 328 336 335 338 334 333 339 338 338 335 332 332
344 343 346 348 349 350 353 353 354 353 351 346 356 355 353 347 350 347 348 348 347 343 350 350 347 344 345 339 337 337 325 336 334 337 336 337 334 333 330 333 334 333 332
346 344 344 347 350 350 353 354 355 354 352 351 348 356 357 351 350 349 348 350 346 343 347 346 345 346 337 339 333 328 321 330 334 336 335 334 334 335 334 334 333 331 332
346 346 345 346 350 351 351 355 357 355 354 353 350 348 353 356 349 352 351 353 347 346 343 345 345 341 333 336 327 321 335 323 327 332 335 335 334 333 333 333 332 332 331
347 348 347 346 349 350 351 352 356 356 355 351 352 349 347 351 350 348 355 351 349 345 345 344 340 337 331 330 320 317 320 324 332 329 326 333 335 333 333 332 332 331 330
347 347 348 348 348 350 351 351 354 356 355 353 349 350 345 346 346 346 352 354 348 346 343 343 341 326 326 324 325 324 327 327 334 332 333 334 334 333 332 333 332 331 330
346 347 346 348 348 348 350 351 351 353 355 353 348 346 346 344 345 345 350 349 353 347 344 342 340 328 325 325 326 324 327 328 329 336 335 335 335 334 333 332 332 332 331
344 347 346 346 347 346 349 350 351 352 354 354 348 345 346 346 344 348 349 351 350 351 343 342 340 325 323 324 329 325 326 336 331 326 332 336 333 329 332 334 334 332 333
338 340 346 347 347 346 347 349 351 352 353 353 351 343 345 348 347 343 348 348 350 350 350 342 334 328 322 323 331 324 327 335 328 323 322 323 329 335 334 332 331 331 331
338 340 345 347 348 347 346 347 347 351 354 358 350 349 346 349 348 341 339 346 346 345 343 344 341 329 322 321 332 323 325 327 328 323 322 323 332 333 332 334 333 332 331
338 340 340 345 348 349 348 348 349 350 352 358 354 347 354 348 345 345 347 344 342 342 340 341 340 333 323 320 331 325 328 325 323 322 322 328 333 332 333 333 332 332 332
338 338 341 343 343 351 350 350 350 351 352 356 357 356 353 352 350 353 354 353 350 346 345 345 343 337 324 320 331 329 328 326 323 326 325 329 330 331 335 333 331 329 328
335 340 341 344 340 350 352 351 352 352 351 353 354 354 359 358 358 358 358 358 357 355 352 348 346 340 326 321 332 333 331 330 329 326 333 332 336 337 335 332 331 326 325
335 337 345 345 346 351 352 354 353 354 352 351 352 354 357 359 359 359 359 359 358 357 355 353 348 342 329 324 333 337 333 331 330 329 332 331 336 333 333 328 329 326 326
337 336 335 345 347 350 354 356 356 355 355 353 356 356 359 360 361 361 360 360 359 358 356 352 346 341 335 326 338 339 334 332 333 337 334 332 333 331 329 327 328 328 326
335 337 336 335 344 350 352 355 359 357 357 358 358 361 361 364 363 361 360 359 357 356 354 350 346 341 337 337 338 337 335 334 333 332 333 333 329 329 329 329 330 329 327
330 335 334 334 334 346 352 355 357 361 359 361 359 363 364 365 362 359 360 356 356 355 351 349 345 343 342 341 341 340 338 337 338 337 334 332 330 331 330 331 329 327 327
330 330 330 337 336 347 354 357 358 362 362 363 364 364 365 363 361 360 354 353 353 351 349 346 345 343 342 342 341 339 339 338 338 337 336 336 333 330 330 328 328 328 327
342 340 340 339 349 351 354 360 363 364 363 364 365 365 363 361 359 353 347 348 349 350 347 345 344 342 342 341 341 341 340 338 336 336 337 335 332 329 328 329 327 326 326
348 348 345 349 358 357 357 362 363 363 363 363 363 362 360 355 353 354 353 351 348 347 346 343 341 341 342 343 342 340 339 338 337 333 332 328 325 329 328 328 326 326 323
354 352 354 358 360 360 361 362 363 362 361 360 359 356 353 353 353 348 347 348 346 345 343 343 342 343 342 340 338 335 333 332 330 328 327 328 328 328 327 326 323 320 320
357 357 358 359 362 362 362 361 360 358 357 356 355 355 352 351 348 348 346 345 344 342 342 342 342 341 339 337 329 329 328 327 327 328 328 328 326 325 324 324 323 322 320
355 356 358 359 360 360 357 355 355 354 353 352 352 350 349 348 347 346 345 344 341 341 342 340 338 338 335 331 329 327 326 326 326 327 329 328 326 326 326 324 322 320 319

GFSMW_850_thetae_033.txt.gz
Theta_e
344 345 345 347 348 348 349 350 350 351 352 352 351 346 346 347 348 345 348 352 350 350 348 345 347 344 349 345 342 341 339 333 334 334 335 334 337 336 339 338 337 338 338
344 345 345 346 347 347 348 348 349 350 351 353 352 350 345 348 345 345 348 347 349 347 345 344 345 345 347 346 343 342 327 336 337 334 334 338 338 336 338 338 332 335 335
344 344 345 346 346 347 348 348 349 350 350 353 353 351 348 348 349 351 351 349 348 349 346 345 343 345 345 345 343 342 328 335 335 335 336 339 339 338 338 337 335 331 333
343 344 346 346 348 348 348 349 350 351 351 351 351 350 349 356 353 354 351 349 347 349 344 346 343 343 344 343 343 340 318 330 336 335 337 333 333 339 339 338 336 332 330
343 344 345 346 347 348 348 348 350 350 350 350 351 347 349 352 351 350 345 348 352 350 346 346 342 344 342 339 340 335 318 324 335 336 337 334 334 334 332 337 336 333 332
342 342 345 345 347 348 348 348 349 350 350 350 347 348 349 349 348 346 348 347 348 347 344 345 347 345 338 345 337 333 320 317 329 336 335 334 334 335 335 334 333 332 333
342 342 345 347 348 348 348 348 349 350 351 351 344 346 353 352 347 351 350 349 348 349 342 343 349 338 341 337 327 321 318 319 321 325 332 334 334 333 333 333 332 332 331
344 343 343 346 348 348 349 350 351 351 351 352 348 343 352 353 351 352 353 352 351 350 343 342 340 340 341 326 323 321 319 320 320 322 323 335 334 333 333 332 331 332 330
346 345 344 344 347 348 349 350 352 352 352 352 353 346 342 351 350 349 350 352 353 350 347 345 343 336 328 326 322 320 320 324 328 324 320 325 333 333 333 333 333 331 331
345 347 345 344 345 347 348 350 350 351 352 352 353 352 344 344 345 346 348 348 353 351 349 347 344 342 339 324 322 322 323 325 325 326 325 328 326 329 332 333 331 331 331
343 346 347 346 345 346 349 349 350 351 353 353 352 352 351 341 345 345 345 344 353 352 348 347 344 342 341 332 321 326 325 324 328 328 328 331 331 329 331 333 333 333 332
343 343 347 348 347 346 349 349 350 351 351 352 352 351 351 347 342 344 345 342 342 351 353 352 347 343 341 330 321 327 328 324 330 331 329 329 328 325 322 331 332 331 330
341 342 345 348 349 348 348 350 349 349 349 350 351 350 349 350 342 341 344 344 342 339 346 350 350 348 343 337 324 323 330 323 326 329 329 324 323 320 328 330 330 332 331
339 340 347 347 349 349 348 349 349 348 347 348 349 348 347 347 342 340 342 346 345 345 344 341 343 344 346 342 334 321 330 324 326 327 326 324 323 322 328 330 331 330 331
340 339 346 347 347 348 347 347 349 349 346 346 346 345 343 343 343 342 342 344 348 347 348 347 346 347 347 346 342 324 327 326 327 327 333 325 324 325 328 329 329 331 330
340 339 343 348 348 347 347 346 347 350 347 345 345 345 339 341 342 343 343 345 350 352 351 353 352 351 350 349 347 331 323 328 328 327 326 326 327 328 329 331 332 332 333
338 338 337 340 346 347 346 347 346 348 348 345 346 348 345 341 343 343 347 353 355 356 356 356 357 356 354 351 347 337 325 330 331 330 329 332 329 332 335 334 332 334 331
337 337 338 338 338 341 344 347 348 347 347 348 348 349 349 350 350 353 354 359 360 360 359 358 358 356 353 350 346 338 329 333 335 333 332 334 332 333 329 330 330 329 329
334 338 339 339 339 344 342 349 350 349 349 349 350 350 350 352 354 357 360 361 362 361 361 358 356 354 350 347 343 336 331 337 337 334 335 336 337 336 331 329 328 328 329
332 333 334 333 341 342 345 347 353 352 351 351 351 351 352 353 355 358 361 362 362 362 359 355 354 351 349 345 342 339 335 337 338 335 334 334 336 334 332 329 328 330 330
331 330 330 328 334 338 346 351 353 354 354 353 354 352 354 355 357 361 363 362 361 359 356 354 351 336 347 345 342 340 341 341 339 337 338 338 337 334 331 329 328 328 328
341 340 334 330 331 331 339 345 350 351 357 356 361 359 361 362 363 364 364 360 359 356 355 353 350 347 346 344 342 342 341 340 339 339 338 337 334 332 327 327 323 324 327
343 345 344 341 339 338 338 339 347 353 360 361 362 364 367 368 367 365 361 356 353 354 353 350 348 346 344 342 341 341 340 340 340 339 338 335 333 330 330 328 328 327 324
349 346 350 346 349 354 351 352 359 360 363 363 366 367 366 365 363 360 354 348 351 351 350 347 345 344 342 342 342 341 340 340 339 337 336 333 332 328 326 324 323 322 321
357 356 356 359 360 359 362 363 363 364 364 366 365 364 362 359 354 353 349 347 348 347 346 344 342 342 342 341 340 337 335 332 331 331 331 329 328 326 326 325 324 324 322
356 359 362 362 363 363 364 364 364 362 359 357 356 358 355 353 350 348 345 346 345 343 343 342 340 341 340 337 331 329 328 327 327 326 327 327 327 325 324 324 326 324 322

GFSMW_850_thetae_036.txt.gz
Theta_e
345 345 346 347 349 347 346 346 349 349 349 349 348 343 344 343 345 348 349 351 349 348 349 348 345 342 344 344 341 342 338 329 333 335 334 334 336 337 339 340 337 336 336
346 346 345 346 347 347 348 348 347 349 350 349 350 350 347 340 343 347 346 348 348 348 346 342 342 345 344 345 343 342 331 327 335 329 334 335 337 338 338 336 334 334 335
345 345 345 345 346 347 348 348 348 348 349 350 351 351 350 343 344 346 346 345 346 346 347 345 342 344 344 343 343 340 337 332 334 334 337 339 337 338 337 335 334 330 331
344 344 345 346 346 346 347 347 348 348 349 349 350 352 351 344 346 347 347 348 349 348 349 346 344 343 342 345 343 341 322 328 334 335 333 335 338 339 337 336 336 330 331
343 343 344 345 345 345 346 346 347 348 348 348 349 350 351 346 346 348 350 350 350 350 350 346 342 339 341 344 342 338 330 323 332 335 336 331 331 334 338 338 336 333 332
342 343 343 344 345 345 345 346 347 348 348 349 350 349 348 348 347 350 350 348 345 348 350 345 345 341 341 343 338 337 333 324 330 335 336 333 333 334 335 335 332 332 332
342 342 343 344 345 345 346 346 347 348 348 349 349 349 347 345 347 352 350 347 345 347 349 345 344 337 342 335 335 331 326 318 321 333 335 334 333 333 333 333 333 332 331
341 342 343 343 344 345 346 347 347 348 348 348 349 349 346 342 345 348 349 347 349 348 347 348 343 336 338 331 330 325 320 319 319 322 328 332 334 333 333 333 332 330 331
340 341 341 342 343 345 345 346 347 347 347 347 349 350 347 340 345 346 346 349 350 349 350 345 340 335 332 328 324 322 320 320 320 321 321 327 334 333 333 332 332 332 331
341 340 341 341 343 343 344 345 346 347 347 347 348 350 350 341 340 345 348 351 352 352 351 349 346 343 339 329 323 321 321 324 322 323 322 321 321 333 333 332 332 332 331
342 342 341 341 343 344 346 345 346 347 348 348 349 350 351 348 341 341 348 350 350 350 351 351 349 347 344 342 339 324 322 328 323 324 323 323 327 325 329 330 331 332 332
342 344 343 345 342 343 345 346 346 347 347 348 349 350 351 351 347 341 340 344 348 349 350 352 350 348 346 343 342 339 322 329 325 325 327 324 323 327 327 325 331 331 331
341 343 344 343 342 342 344 345 346 345 346 349 350 350 351 351 351 347 340 339 341 346 347 351 351 349 348 345 343 340 327 323 329 325 329 327 324 323 326 325 322 330 331
342 341 343 345 346 345 345 345 345 345 347 348 350 350 351 350 349 348 345 338 339 342 342 344 351 352 351 350 346 343 338 324 327 326 327 329 329 326 325 322 328 329 331
341 341 341 341 343 345 345 346 345 346 347 348 349 349 350 349 348 347 346 341 340 341 341 344 344 346 348 350 349 347 345 339 324 328 325 327 329 330 329 325 329 331 332
339 340 339 340 343 344 346 346 346 346 347 348 348 349 349 350 349 346 344 345 340 341 344 345 345 344 346 348 349 349 347 345 334 324 327 327 327 330 333 329 331 333 333
339 339 339 339 343 345 347 347 347 347 348 348 348 349 348 348 348 348 345 342 343 343 344 348 350 351 352 352 352 351 349 346 344 326 328 327 329 329 333 333 333 330 329
337 338 341 343 344 345 347 347 347 348 348 350 351 349 349 347 348 348 347 344 343 345 345 350 353 353 353 355 355 354 352 348 344 331 328 330 331 332 334 331 334 333 331
336 336 337 340 346 345 346 347 347 347 349 350 350 349 348 347 347 348 347 346 346 347 348 352 354 355 356 355 356 353 349 346 340 331 330 334 335 334 333 334 333 332 329
333 334 336 337 338 336 338 346 346 346 346 347 347 349 348 348 347 348 350 351 352 350 352 356 357 357 357 356 353 348 345 342 337 333 333 337 337 337 336 334 336 332 328
329 330 335 336 336 340 344 346 344 346 344 345 345 349 350 348 347 348 353 354 357 358 357 359 357 350 355 354 349 344 342 340 338 337 338 338 337 336 335 334 333 330 328
332 332 331 333 334 335 334 340 345 342 343 348 348 347 349 349 351 352 355 358 358 359 362 358 353 346 352 349 345 343 341 341 341 340 339 338 339 337 336 332 328 327 325
338 336 334 331 331 330 330 331 333 338 343 349 349 349 351 352 354 356 359 360 358 359 357 355 348 347 346 345 343 342 342 342 341 339 338 338 338 334 332 329 328 328 327
340 341 342 339 335 332 332 332 336 342 349 353 354 354 354 355 356 360 360 359 357 357 354 351 347 345 343 344 344 342 340 339 339 338 337 337 336 333 330 329 325 323 322
343 343 344 343 339 338 339 342 345 346 357 358 361 360 361 361 362 364 363 360 355 353 350 346 341 341 339 337 341 341 341 340 338 335 334 335 332 330 326 324 324 323 322
349 352 355 360 360 360 357 353 357 358 357 361 362 359 358 359 359 359 357 352 347 338 348 343 341 342 341 341 340 339 337 334 331 330 329 329 328 326 325 323 324 325 324

GFSMW_850_thetae_042.txt.gz
Theta_e
343 345 345 345 345 345 346 343 341 342 338 336 339 347 346 345 347 348 347 347 345 345 346 347 346 344 343 342 343 343 342 341 335 330 332 332 334 335 337 334 337 335 336
346 345 346 346 346 345 343 343 342 344 338 342 345 345 347 346 345 347 346 347 346 345 345 344 347 345 343 341 342 344 342 340 326 332 332 334 335 335 337 338 337 332 334
346 346 346 346 346 345 346 344 345 344 344 343 347 347 347 347 347 349 348 346 345 346 344 344 344 344 342 342 344 345 343 339 329 331 332 335 334 334 337 338 334 331 331
347 346 346 347 346 346 345 346 345 346 344 345 347 348 348 347 346 345 345 346 344 344 343 344 345 346 344 341 343 343 344 337 331 331 332 334 335 336 336 336 333 332 332
346 346 346 345 345 344 345 346 347 346 346 345 346 347 348 347 347 347 346 342 341 344 343 345 346 346 345 342 343 343 343 337 324 330 330 334 336 337 337 336 335 335 332
344 345 344 343 345 345 345 345 347 346 346 346 346 347 347 347 348 348 348 340 342 344 344 346 346 347 347 342 342 341 343 338 329 330 331 332 332 335 336 337 336 335 335
345 344 344 344 344 344 343 343 344 345 346 346 346 346 346 347 347 347 345 341 344 345 345 347 348 347 347 342 341 340 340 336 333 325 328 334 332 329 331 332 334 334 332
345 345 345 344 342 341 342 342 343 344 345 345 346 346 347 347 347 348 346 340 343 345 349 345 345 346 347 343 339 338 339 336 330 321 322 330 332 332 332 332 333 333 332
340 344 344 345 344 342 341 341 342 341 344 344 345 346 347 347 347 347 348 344 339 344 348 347 344 345 347 345 338 337 331 329 328 322 320 321 327 330 331 332 332 332 331
337 340 342 343 343 343 343 342 341 341 342 343 344 345 345 346 346 347 347 346 341 342 346 346 345 346 346 346 338 337 334 325 324 323 322 321 320 321 327 332 333 332 332
339 339 339 341 341 342 343 342 342 342 342 342 344 344 345 346 346 347 346 348 342 338 344 343 346 348 347 344 336 332 334 328 322 323 324 323 323 321 321 324 327 331 332
339 340 340 340 341 341 342 342 342 342 342 342 342 343 344 345 345 346 346 347 347 338 340 340 345 348 347 344 339 329 327 328 326 323 324 325 324 324 321 322 325 326 328
337 340 340 339 340 340 341 341 341 341 341 342 343 343 343 344 344 345 346 346 348 341 338 340 343 347 347 347 345 344 342 341 340 336 328 324 325 325 325 322 324 327 327
336 339 341 340 340 340 340 341 341 341 342 342 342 342 343 343 343 344 346 346 346 348 338 339 340 347 347 348 348 348 347 346 344 342 340 335 325 326 326 327 323 326 327
335 338 341 341 341 340 341 341 341 341 342 342 343 342 342 343 343 344 345 346 346 347 348 338 340 345 348 348 348 348 349 349 347 345 344 342 336 328 327 328 329 329 328
330 331 339 341 342 341 342 341 341 342 341 341 342 342 343 343 343 344 345 346 346 347 348 348 341 340 346 347 347 348 348 349 349 349 348 346 343 336 327 329 329 334 334
327 327 331 339 342 342 342 342 342 342 341 342 342 343 343 343 343 344 345 345 346 347 348 347 348 344 339 341 343 347 348 347 349 349 347 348 345 342 337 330 330 331 336
326 326 327 330 338 342 342 343 342 342 342 342 343 343 343 344 344 345 345 345 346 346 347 348 347 348 346 342 340 344 345 345 346 347 347 348 346 344 342 336 332 331 333
327 327 328 329 333 341 344 343 342 342 342 342 344 343 343 344 346 347 347 346 347 346 347 348 348 348 347 347 347 342 344 346 348 348 349 350 347 344 343 333 334 331 336
326 328 329 328 336 336 341 341 340 340 341 342 342 342 343 344 346 346 347 348 348 347 348 348 348 348 348 348 348 347 345 347 349 351 351 349 340 342 337 332 332 337 336
328 327 328 329 333 339 340 340 338 338 339 338 340 341 343 344 345 348 349 350 352 352 351 350 352 351 349 350 350 349 348 350 352 350 351 345 340 337 333 333 337 337 337
328 328 329 331 335 336 339 339 339 339 340 341 342 343 344 345 347 348 349 351 350 350 352 354 354 354 353 351 350 353 351 352 348 346 341 341 336 332 334 336 338 338 337
330 331 334 334 334 336 339 341 342 343 343 345 346 346 348 350 351 350 352 354 356 357 357 358 357 356 355 351 349 352 351 347 340 335 337 338 337 337 339 338 338 336 333
343 336 331 331 335 335 338 340 343 344 343 341 342 343 345 349 352 355 356 356 357 358 356 357 357 356 357 354 352 352 346 337 342 341 338 339 340 340 339 338 336 332 329
351 347 347 348 350 351 348 346 342 339 339 340 340 345 348 346 347 349 353 357 358 357 358 358 356 353 350 346 349 343 339 335 336 334 332 339 340 338 336 335 331 329 328
352 350 351 350 350 348 346 345 346 347 347 349 351 352 352 350 350 351 354 356 354 353 357 352 344 338 336 340 337 331 332 335 335 339 340 338 337 336 335 333 330 328 323

GFSMW_850_thetae_048.txt.gz
Theta_e
344 345 345 345 346 346 347 348 347 345 343 341 344 343 342 343 344 348 350 347 344 346 346 353 345 345 349 349 346 347 344 346 343 334 335 337 338 337 339 339 338 338 339
345 345 345 345 345 347 348 349 344 342 336 341 341 342 343 343 345 349 351 345 346 346 346 344 351 345 351 344 349 344 347 345 339 334 336 337 336 337 339 340 339 339 337
346 345 345 346 345 346 348 349 345 346 340 343 345 344 343 345 347 349 351 351 346 347 347 346 344 345 346 349 348 347 344 344 342 331 339 336 337 336 337 339 339 340 337
348 345 344 346 345 346 348 349 351 348 349 338 345 343 341 343 345 349 350 350 352 350 351 348 344 344 350 351 351 349 347 344 340 336 336 339 340 336 338 338 340 339 339
348 347 344 344 345 347 349 350 352 347 349 342 342 347 342 342 347 350 351 351 351 344 350 353 351 346 345 351 347 344 342 346 341 334 337 337 338 338 338 339 338 339 339
348 348 345 344 346 347 349 350 352 341 342 342 338 344 345 344 349 352 352 353 352 352 346 352 352 348 350 351 348 346 342 343 342 334 336 336 336 337 338 337 339 339 340
348 348 349 345 345 347 348 350 350 343 342 342 342 341 341 339 345 352 353 351 350 350 350 347 347 350 344 348 345 346 343 340 341 333 334 335 336 335 334 335 337 336 338
349 348 349 349 348 347 348 350 350 344 344 344 344 344 344 344 349 350 351 352 351 349 351 351 343 342 349 344 344 347 342 339 336 333 330 335 335 336 335 334 334 335 335
348 349 349 350 350 350 349 349 345 339 340 343 344 345 344 345 351 349 348 352 352 351 352 353 342 341 344 345 346 348 343 336 332 333 330 326 335 337 336 335 334 334 334
344 347 349 349 350 351 351 352 347 339 335 338 341 342 344 344 345 346 346 347 350 349 351 353 347 343 345 347 343 349 349 339 333 334 330 326 334 336 336 335 334 334 333
342 347 348 348 350 350 351 353 354 349 343 341 338 339 341 342 342 344 345 345 346 346 346 350 341 342 346 347 344 345 352 344 334 333 331 328 326 333 336 335 335 335 335
339 343 345 347 348 349 350 350 352 354 353 346 341 338 337 338 340 341 343 344 345 346 346 346 346 339 348 349 344 343 350 349 342 334 332 328 327 325 328 336 334 335 336
337 339 340 341 344 347 349 349 350 351 353 354 351 342 339 338 339 338 339 341 343 345 346 346 346 343 337 341 342 342 343 347 347 341 332 328 326 325 333 330 336 336 333
336 337 339 339 340 343 347 349 349 350 352 353 354 349 342 339 338 338 338 340 341 343 344 346 346 345 341 336 339 345 343 346 348 347 337 332 328 325 323 325 326 328 333
335 336 340 341 343 344 346 349 349 348 350 351 351 344 342 342 341 340 340 341 341 342 343 344 345 345 345 344 336 337 339 340 346 347 341 330 328 331 335 334 329 325 326
329 332 337 340 344 347 349 350 349 348 348 349 346 341 342 342 342 342 342 342 342 342 342 343 344 345 345 344 343 334 334 335 344 346 344 343 338 340 341 341 341 337 328
330 332 336 339 342 346 346 342 345 349 349 346 344 343 344 343 342 342 343 342 342 344 342 342 343 344 345 345 344 341 335 335 336 343 345 346 347 345 345 344 343 343 343
330 332 333 334 340 341 342 348 349 348 343 341 342 343 343 343 344 343 342 342 343 343 342 342 342 343 344 345 345 344 345 338 338 341 342 346 348 348 348 348 348 348 346
330 331 331 331 332 335 339 345 347 350 350 343 341 341 342 342 342 342 342 343 349 351 356 357 355 351 350 346 345 346 346 347 344 347 343 344 346 348 347 348 349 349 348
329 330 330 331 332 333 337 343 347 345 340 342 342 341 341 341 341 342 345 350 350 355 357 358 357 357 358 357 354 352 351 350 350 349 349 345 340 342 344 348 349 349 347
334 332 333 333 331 335 339 339 344 337 332 341 344 343 343 342 342 345 349 352 353 355 354 351 353 351 349 347 346 349 352 350 339 349 350 351 349 347 343 343 348 346 345
337 333 334 334 335 337 328 328 330 328 334 339 347 343 343 345 350 344 352 355 356 355 352 349 347 346 341 344 337 337 353 355 350 349 337 350 344 349 350 346 347 346 343
340 335 338 334 337 333 328 327 327 329 335 341 345 346 345 346 349 354 352 356 357 357 357 357 354 353 349 341 336 336 351 354 353 352 352 351 348 348 340 334 328 342 340
340 342 340 336 345 338 329 330 332 334 337 342 343 342 342 349 350 357 358 358 358 358 357 356 355 349 344 354 342 348 355 355 355 351 351 350 349 341 334 335 332 330 334
354 350 350 354 354 340 338 338 337 339 338 339 342 349 354 346 357 359 360 360 359 359 359 359 358 356 358 356 352 355 357 356 355 348 345 345 342 337 333 330 329 333 336
353 355 356 358 362 357 345 356 343 342 348 351 356 357 358 359 360 356 357 359 360 360 359 359 361 359 356 354 354 356 357 356 355 342 342 337 334 333 332 331 334 334 333